Location: Maccacari
(45.1333°N, 11.1333°E)
Time: 08:16:28
(UTC+00:00)

SR - Pass Details

Date: 25 January 2021
Orbit: 573 x 882 km, 66.7° (Epoch: 04 March)

Event Time Altitude Azimuth Distance (km) Brightness Sun altitude
Exits shadow 03:02:46 19° 58° (ENE) 1,718 ? -38.6°
Drops below altitude 10° 03:04:24 10° 48° (NE) 2,270 ? -38.4°
Sets 03:07:04 0° 39° (NE) 3,254 ? -37.9°
